"Timestamp","TZ","WindDir_Mean (deg)","WindSpd_Mean (km/h)","WindSpd_Min (km/h)","WindSpd_Max (km/h)","Temp_Mean (deg)","RH_Mean (%)","MSLP_Mean (hPa)","Rain_Acc (mm)","Rain_Intensity (mm/h)","Hail_Acc (hits/cm2)","Hail_Intensity (hits/cm2hr)","Solar_Mean (W/m2)"
2020/12/11 10:48:00.001,n,97,15.12,0,20.880002,24.7,50.3,1021.22,0,0,0,0,250.92118
2020/12/11 10:49:00.000,n,83,15.12,13.68,18.359998,24.6,50,1021.22,0,0,0,0,242.21572
2020/12/11 10:50:00.000,n,88,17.28,13.68,19.8,24.5,50.2,1021.22,0,0,0,0,235.28794
2020/12/11 10:51:00.000,n,121,6.84,4.32,9.72,24.5,50.3,1021.22,0,0,0,0,232.27006
2020/12/11 10:52:00.002,n,80,9.36,3.6,15.84,24.5,50.2,1021.22,0,0,0,0,231.44516
2020/12/11 10:53:00.000,n,129,10.08,7.2,11.52,24.4,50.4,1021.22,0,0,0,0,230.7322
2020/12/11 10:54:00.000,n,89,15.12,14.4,16.56,24.4,50.2,1021.22,0,0,0,0,228.1971
2020/12/11 10:55:00.009,n,117,19.08,14.4,22.68,24.4,49.9,1021.22,0,0,0,0,226.38282
2020/12/11 10:56:00.006,n,78,5.04,2.52,6.12,24.4,50.2,1021.22,0,0,0,0,228.00544
2020/12/11 10:57:00.003,n,135,9,3.6,11.52,24.4,50.4,1021.22,0,0,0,0,231.0508
2020/12/11 10:58:00.000,n,166,10.440002,9,12.24,24.4,50.6,1021.22,0,0,0,0,235.35836
2020/12/11 10:59:00.000,n,111,19.8,18.72,22.68,24.4,51,1021.22,0,0,0,0,239.7417
2020/12/11 11:00:00.000,n,71,7.56,3.96,15.84,24.4,51.4,1021.22,0,0,0,0,242.63476
2020/12/11 11:01:00.007,n,81,15.84,12.6,18.72,24.4,51.8,1021.22,0,0,0,0,239.04254
2020/12/11 11:02:00.005,n,156,4.32,2.52,5.4,24.4,52.1,1021.32,0,0,0,0,229.53662
2020/12/11 11:03:00.000,n,109,12.24,11.88,13.32,24.4,52,1021.22,0,0,0,0,220.78388
2020/12/11 11:04:00.000,n,91,12.6,9.72,15.84,24.4,52.2,1021.32,0,0,0,0,216.4983
2020/12/11 11:05:00.012,n,129,12.24,9,16.2,24.3,52.4,1021.32,0,0,0,0,215.60352
2020/12/11 11:06:00.016,n,107,4.32,3.6,5.04,24.3,52.7,1021.32,0,0,0,0,216.69512
2020/12/11 11:07:00.000,n,133,5.76,4.32,7.2,24.3,52.7,1021.32,0,0,0,0,219.49848
2020/12/11 11:08:00.000,n,137,5.04,3.6,6.84,24.4,52.8,1021.32,0,0,0,0,220.85772
2020/12/11 11:09:00.000,n,97,18.359998,14.4,20.880002,24.4,52.8,1021.32,0,0,0,0,220.4036
2020/12/11 11:10:00.004,n,111,9.72,7.2,12.24,24.4,53.2,1021.22,0,0,0,0,217.83126
2020/12/11 11:11:00.002,n,129,14.4,12.96,19.08,24.3,53.7,1021.22,0,0,0,0,216.01882
2020/12/11 11:12:00.000,n,113,14.76,6.84,21.24,24.3,53.8,1021.22,0,0,0,0,209.89274
2020/12/11 11:13:00.012,n,121,8.28,5.04,11.16,24.2,54.2,1021.32,0,0,0,0,197.02134
2020/12/11 11:14:00.010,n,141,32.039998,26.64,38.519996,24.1,54.2,1021.22,0,0,0,0,182.56608
2020/12/11 11:15:00.015,n,93,15.48,12.24,20.519998,23.9,55.5,1021.32,0,0,0,0,167.00546
2020/12/11 11:16:00.000,n,97,24.84,20.519998,29.88,23.8,56,1021.32,0,0,0,0,150.95996
2020/12/11 11:17:00.000,n,145,22.68,20.16,25.56,23.6,56,1021.32,0,0,0,0,140.51706
2020/12/11 11:18:00.000,n,123,20.16,16.919998,22.319998,23.4,55.2,1021.32,0,0,0,0,135.07056
2020/12/11 11:19:00.004,n,154,13.32,9.36,16.56,23.3,55.9,1021.32,0,0,0,0,132.09098
2020/12/11 11:20:00.001,n,154,16.2,13.68,17.64,23.1,55.7,1021.22,0,0.4,0,0,131.46166
2020/12/11 11:21:00.008,n,161,19.08,15.48,21.24,22.9,55,1021.22,0.02,0.9,0,0,132.11968
2020/12/11 11:22:00.000,n,140,9.36,8.28,10.440002,22.7,58.2,1021.22,0.05,1.7,0,0,132.32502
2020/12/11 11:23:00.010,n,177,7.92,5.76,11.52,22.6,59.5,1021.22,0.07,2,0,0,135.14598
2020/12/11 11:24:00.008,n,146,9,7.92,10.440002,22.5,60.3,1021.22,0.08,0.8,0,0,137.63916
2020/12/11 11:25:00.000,n,130,14.76,11.88,16.56,22.5,62.6,1021.22,0.08,0,0,0,138.98746
2020/12/11 11:26:00.000,n,161,5.76,2.52,10.8,22.4,63.9,1021.22,0.08,0,0,0,140.45952
2020/12/11 11:27:00.002,n,203,10.08,7.56,10.8,22.3,64.300004,1021.22,0.08,0,0,0,143.13256
2020/12/11 11:28:00.000,n,188,7.2,6.48,7.92,22.2,65,1021.22,0.08,0,0,0,145.7669
2020/12/11 11:29:00.000,n,214,10.08,7.2,11.88,22.2,65.4,1021.22,0.08,0,0,0,146.74292
2020/12/11 11:30:00.010,n,149,9.72,5.76,11.52,22.1,65.1,1021.22,0.08,0,0,0,146.73586
2020/12/11 11:31:00.007,n,179,3.96,3.24,5.4,22.1,66.1,1021.22,0.08,0,0,0,146.8231
2020/12/11 11:32:00.005,n,161,6.84,4.32,9,22.1,66,1021.22,0.08,0,0,0,147.7816
2020/12/11 11:33:00.002,n,203,9.72,7.92,10.8,22.1,65.199996,1021.22,0.08,0,0,0,148.89256
2020/12/11 11:34:00.000,n,214,3.24,2.16,3.96,22.1,66.199996,1021.22,0.08,0,0,0,151.4457
2020/12/11 11:35:00.000,n,166,9.72,7.56,10.8,22.2,66.1,1021.22,0.08,0,0,0,157.79602
2020/12/11 11:36:00.000,n,161,8.64,8.28,9,22.2,65.9,1021.22,0.08,0,0,0,168.41616
2020/12/11 11:37:00.000,n,151,5.04,3.24,5.76,22.3,66.6,1021.12,0.08,0,0,0,180.7706
2020/12/11 11:38:00.006,n,143,2.52,2.16,3.24,22.3,66.4,1021.12,0.08,0,0,0,192.80124
2020/12/11 11:39:00.002,n,170,9.36,8.28,10.8,22.4,66.5,1021.12,0.08,0,0,0,202.14816
2020/12/11 11:40:00.000,n,130,8.28,7.2,9.72,22.4,65.5,1021.02,0.08,0,0,0,209.12906
2020/12/11 11:41:00.013,n,129,9.36,8.28,10.440002,22.5,65.699996,1021.12,0.08,0,0,0,215.91984
2020/12/11 11:42:00.010,n,83,3.96,3.6,4.68,22.6,65.6,1021.02,0.08,0,0,0,220.8939
2020/12/11 11:43:00.000,n,123,9,7.92,10.440002,22.6,66.800004,1021.02,0.08,0,0,0,223.52634
2020/12/11 11:44:00.000,n,142,12.6,10.8,14.04,22.7,64.199996,1021.02,0.08,0,0,0,226.31808
2020/12/11 11:45:00.002,n,133,8.28,7.2,9,22.8,64,1021.02,0.08,0,0,0,229.33658
2020/12/11 11:46:00.000,n,127,14.04,4.32,16.56,22.9,62.3,1021.02,0.08,0,0,0,230.40714
2020/12/11 11:47:00.000,n,162,14.76,12.24,16.919998,23,60.3,1020.92,0.08,0,0,0,224.03512
2020/12/11 11:48:00.008,n,148,9,7.2,10.8,23.1,59.7,1021.02,0.08,0,0,0,220.61744
2020/12/11 11:49:00.005,n,139,14.4,12.6,15.84,23.2,59.3,1021.02,0.08,0,0,0,214.84596
2020/12/11 11:50:00.002,n,138,14.4,13.32,16.56,23.3,57.9,1021.02,0.08,0,0,0,212.00874
2020/12/11 11:51:00.016,n,115,10.08,8.28,11.52,23.4,58.3,1021.02,0.08,0,0,0,205.1139
2020/12/11 11:52:00.000,n,66,12.6,11.16,14.04,23.5,57.8,1021.02,0.08,0,0,0,197.80464
2020/12/11 11:53:00.000,n,96,12.6,10.8,14.76,23.5,57.1,1021.02,0.08,0,0,0,188.6811
2020/12/11 11:54:00.000,n,166,9,3.96,14.04,23.6,57.1,1021.02,0.08,0,0,0,179.7718
2020/12/11 11:55:00.004,n,165,5.04,1.8,8.28,23.6,56.9,1021.02,0.08,0,0,0,180.17738
2020/12/11 11:56:00.001,n,132,11.52,10.440002,14.04,23.7,56.3,1021.02,0.08,0,0,0,184.1874
2020/12/11 11:57:00.000,n,142,12.6,9.36,14.4,23.7,56.4,1021.02,0.08,0,0,0,190.95436
2020/12/11 11:58:00.012,n,108,11.16,9.36,14.4,23.7,55.8,1020.92,0.08,0,0,0,198.24868
2020/12/11 11:59:00.010,n,86,7.92,6.84,9.72,23.7,55.7,1021.02,0.08,0,0,0,203.98658
2020/12/11 12:00:00.007,n,130,19.44,16.56,24.48,23.7,54.7,1020.92,0.08,0,0,0,208.57308
2020/12/11 12:01:00.000,n,145,17.28,15.84,18.359998,23.7,55.3,1021.02,0.08,0,0,0,211.21406
2020/12/11 12:02:00.002,n,134,15.48,14.4,15.84,23.7,55,1020.92,0.08,0,0,0,212.63954
2020/12/11 12:03:00.000,n,140,9.72,6.48,12.24,23.7,54,1020.92,0.08,0,0,0,214.87068
2020/12/11 12:04:00.000,n,113,14.4,14.04,15.48,23.7,53.6,1021.02,0.08,0,0,0,217.34902
2020/12/11 12:05:00.000,n,92,11.16,9.36,13.32,23.8,54,1021.02,0.08,0,0,0,217.96394
2020/12/11 12:06:00.009,n,124,12.6,10.8,16.56,23.8,53.7,1021.02,0.08,0,0,0,217.03742
2020/12/11 12:07:00.005,n,125,18.72,18,20.16,23.7,53.9,1021.02,0.08,0,0,0,214.88976
2020/12/11 12:08:00.000,n,120,4.68,1.08,7.2,23.7,54.4,1021.02,0.08,0,0,0,213.71482
2020/12/11 12:09:00.012,n,101,14.76,12.6,18.359998,23.8,54.8,1021.02,0.08,0,0,0,213.32878
2020/12/11 12:10:00.000,n,94,2.52,1.8,3.24,23.8,55.4,1021.02,0.08,0,0,0,213.3944
2020/12/11 12:11:00.000,n,127,11.88,8.64,13.32,23.8,55.1,1021.02,0.08,0,0,0,212.47734
2020/12/11 12:12:00.004,n,133,14.04,9.36,16.56,23.8,55.4,1020.92,0.08,0,0,0,211.61736
2020/12/11 12:13:00.000,n,172,5.04,2.88,9.36,23.8,56.2,1021.02,0.08,0,0,0,207.06444
2020/12/11 12:14:00.000,n,142,19.8,18,23.4,23.8,57.6,1020.92,0.08,0,0,0,200.31456
2020/12/11 12:15:00.000,n,159,21.24,18.359998,24.119998,23.6,58.3,1021.02,0.08,0,0,0,191.5438
2020/12/11 12:16:00.009,n,121,16.56,14.4,17.64,23.4,59.4,1021.02,0.08,0,0,0,182.49688
2020/12/11 12:17:00.006,n,196,7.56,6.48,8.64,23.3,60.1,1021.02,0.08,0,0,0,174.53392
2020/12/11 12:18:00.004,n,153,18,13.68,20.880002,23.2,59.9,1021.02,0.08,0,0,0,168.16552
2020/12/11 12:19:00.001,n,149,15.48,9.72,21.599998,23.1,60.4,1021.02,0.08,0,0,0,164.25072
2020/12/11 12:20:00.000,n,160,16.2,13.32,18.72,23,60.8,1021.02,0.08,0,0,0,163.38524
2020/12/11 12:21:00.000,n,145,8.28,7.56,9.72,22.9,61.4,1021.02,0.08,0,0,0,165.9475
2020/12/11 12:22:00.000,n,164,13.68,12.24,15.84,22.9,61.4,1021.02,0.08,0,0,0,172.05712
2020/12/11 12:23:00.006,n,137,7.2,5.4,10.440002,22.9,61.7,1021.02,0.08,0,0,0,178.43316
2020/12/11 12:24:00.003,n,215,4.68,2.52,7.2,22.9,61.6,1021.02,0.08,0,0,0,183.87658
2020/12/11 12:25:00.000,n,143,7.2,5.4,11.88,22.9,61.7,1020.92,0.08,0,0,0,187.50968
2020/12/11 12:26:00.014,n,135,8.64,6.84,11.88,22.9,61.7,1020.92,0.08,0,0,0,188.25432
2020/12/11 12:27:00.010,n,148,9.72,9,10.440002,22.9,61.7,1020.92,0.08,0,0,0,185.7705
2020/12/11 12:28:00.000,n,175,9.72,6.48,12.24,22.9,61.7,1020.92,0.08,0,0,0,180.40428
2020/12/11 12:29:00.000,n,164,9.36,7.2,12.24,22.9,61.4,1020.92,0.08,0,0,0,171.59112
2020/12/11 12:30:00.002,n,178,6.48,3.6,10.440002,22.9,61.1,1020.92,0.08,0,0,0,161.85234
2020/12/11 12:31:00.000,n,124,7.92,5.04,10.440002,22.8,61.2,1020.92,0.08,0,0,0,153.88658
2020/12/11 12:32:00.000,n,145,19.44,14.76,23.04,22.8,61,1020.92,0.08,0,0,0,148.08466
2020/12/11 12:33:00.009,n,157,11.52,10.440002,12.96,22.8,61.3,1020.92,0.08,0,0,0,135.35038
2020/12/11 12:34:00.006,n,169,11.88,7.56,14.4,22.8,61.3,1020.82,0.08,0,0,0,136.4611
2020/12/11 12:35:00.003,n,129,14.76,9.72,20.880002,22.8,60.9,1020.92,0.08,0,0,0,139.28958
2020/12/11 12:36:00.000,n,176,16.56,14.04,19.08,22.7,61.2,1020.92,0.08,0,0,0,144.98164
2020/12/11 12:37:00.000,n,149,15.12,14.04,15.84,22.7,61.2,1020.82,0.08,0,0,0,151.11542
2020/12/11 12:38:00.000,n,154,14.76,13.68,15.84,22.7,61.3,1020.82,0.08,0,0,0,155.97024
2020/12/11 12:39:00.000,n,120,8.28,5.4,11.88,22.7,61.6,1020.92,0.08,0,0,0,162.84782
2020/12/11 12:40:00.006,n,128,12.6,11.52,13.68,22.7,61.7,1020.92,0.08,0,0,0,170.70916
2020/12/11 12:41:00.003,n,147,14.76,13.68,15.84,22.7,61.2,1020.92,0.08,0,0,0,176.45164
2020/12/11 12:42:00.000,n,136,11.52,6.12,15.48,22.7,61.6,1020.92,0.08,0,0,0,178.37516
2020/12/11 12:43:00.000,n,101,5.76,3.96,8.64,22.7,61.7,1020.92,0.08,0,0,0,180.31304
2020/12/11 12:44:00.011,n,102,5.04,4.32,5.76,22.8,61.3,1020.92,0.08,0,0,0,179.10424
2020/12/11 12:45:00.008,n,144,8.28,6.84,9,22.8,61.5,1020.92,0.08,0,0,0,177.87804
2020/12/11 12:46:00.000,n,126,5.04,3.96,6.84,22.8,61.6,1020.92,0.08,0,0,0,181.81054
2020/12/11 12:47:00.000,n,152,8.64,6.12,12.24,22.9,61,1020.92,0.08,0,0,0,171.4663
2020/12/11 12:48:00.001,n,160,15.12,10.440002,16.919998,22.8,60.9,1020.92,0.08,0,0,0,188.23784
2020/12/11 12:49:00.000,n,173,2.52,1.44,5.04,22.8,61.1,1020.92,0.08,0,0,0,182.96776
2020/12/11 12:50:00.000,n,120,12.6,10.08,15.48,22.8,61,1020.92,0.08,0,0,0,177.67906
2020/12/11 12:51:00.010,n,114,13.32,10.08,15.12,22.9,60.8,1020.72,0.08,0,0,0,172.96348
2020/12/11 12:52:00.006,n,165,3.96,2.88,6.48,22.9,61.2,1020.82,0.08,0,0,0,171.39152
2020/12/11 12:53:00.004,n,186,9,7.92,10.8,22.9,61.3,1020.82,0.08,0,0,0,173.40416
2020/12/11 12:54:00.000,n,140,6.12,5.04,7.92,22.9,61.3,1020.82,0.08,0,0,0,177.35008
2020/12/11 12:55:00.000,n,129,11.88,10.08,14.4,22.9,60.7,1020.82,0.08,0,0,0,179.6035
2020/12/11 12:56:00.000,n,207,10.8,9.72,11.88,22.9,60.8,1020.82,0.08,0,0,0,177.62352
2020/12/11 12:57:00.004,n,178,12.24,9.36,13.68,22.9,60.3,1020.82,0.08,0,0,0,172.4511
2020/12/11 12:58:00.001,n,169,10.8,9.72,12.24,22.9,60.4,1020.82,0.08,0,0,0,167.77732
2020/12/11 12:59:00.000,n,191,14.76,11.52,16.56,22.9,60,1020.82,0.08,0,0,0,168.39988
2020/12/11 13:00:00.000,n,179,11.88,11.16,12.24,22.9,59.9,1020.82,0.08,0,0,0,175.34234
2020/12/11 13:01:00.009,n,186,14.4,12.6,16.2,22.8,60.2,1020.82,0.08,0,0,0,187.45506
2020/12/11 13:02:00.006,n,188,6.48,2.88,9,22.7,60.4,1020.82,0.08,0,0,0,205.03746
2020/12/11 13:03:00.003,n,164,12.6,11.52,13.32,22.6,60.9,1020.82,0.08,0,0,0,223.25584
2020/12/11 13:04:00.001,n,196,11.16,9,14.04,22.6,61.5,1020.82,0.08,0,0,0,250.58372
2020/12/11 13:05:00.000,n,139,2.52,2.16,2.88,22.6,61.6,1020.82,0.08,0,0,0,265.39758
2020/12/11 13:06:00.000,n,182,11.52,9.36,12.96,22.6,61.6,1020.82,0.08,0,0,0,262.25672
2020/12/11 13:07:00.000,n,185,12.96,10.8,16.919998,22.6,61.4,1020.72,0.08,0,0,0,254.28338
2020/12/11 13:08:00.006,n,195,9.72,7.92,11.16,22.6,61.5,1020.82,0.08,0,0,0,247.15172
2020/12/11 13:09:00.003,n,140,2.52,1.08,3.96,22.6,61.6,1020.82,0.08,0,0,0,243.24852
2020/12/11 13:10:00.000,n,185,4.32,1.44,7.56,22.7,61.3,1020.82,0.08,0,0,0,242.4752
2020/12/11 13:11:00.014,n,129,4.68,3.24,6.84,22.7,60.2,1020.82,0.08,0,0,0,243.18382
2020/12/11 13:12:00.011,n,219,5.76,2.52,7.2,22.7,60.5,1020.82,0.08,0,0,0,245.0631
2020/12/11 13:13:00.000,n,160,9.72,8.28,10.8,22.7,60.7,1020.72,0.08,0,0,0,246.84318
2020/12/11 13:14:00.000,n,145,5.4,3.6,6.84,22.8,60.2,1020.72,0.08,0,0,0,235.53734
2020/12/11 13:15:00.003,n,165,9,8.28,9.36,22.8,60.7,1020.72,0.08,0,0,0,241.83982
2020/12/11 13:16:00.001,n,112,4.68,3.96,7.56,22.8,60.7,1020.72,0.08,0,0,0,245.18516
2020/12/11 13:17:00.000,n,150,8.28,7.2,9.72,22.8,60.4,1020.72,0.08,0,0,0,249.1729
2020/12/11 13:18:00.000,n,155,12.24,9.72,13.68,22.8,59.2,1020.62,0.08,0,0,0,254.47716
2020/12/11 13:19:00.009,n,156,15.84,13.32,16.56,22.8,59.2,1020.52,0.08,0,0,0,259.14208
2020/12/11 13:20:00.006,n,173,6.84,3.24,10.440002,22.8,59.7,1020.52,0.08,0,0,0,263.49268
2020/12/11 13:21:00.003,n,162,10.440002,9.36,11.52,22.8,60,1020.62,0.08,0,0,0,270.69788
2020/12/11 13:22:00.000,n,124,1.44,0.36,2.88,22.9,60.2,1020.52,0.08,0,0,0,276.79956
2020/12/11 13:23:00.000,n,180,14.04,11.16,15.48,23,59.9,1020.52,0.08,0,0,0,288.60742
2020/12/11 13:24:00.000,n,175,5.4,2.52,6.12,23,60.2,1020.52,0.08,0,0,0,300.86572
2020/12/11 13:25:00.000,n,141,9,7.92,10.08,23,60.6,1020.52,0.08,0,0,0,318.0343
2020/12/11 13:26:00.007,n,169,18,15.12,20.519998,23,60.2,1020.52,0.08,0,0,0,335.4101
2020/12/11 13:27:00.003,n,154,15.48,11.88,18,22.9,60.5,1020.52,0.08,0,0,0,346.755
2020/12/11 13:28:00.000,n,157,10.440002,8.64,13.32,22.9,60.6,1020.52,0.08,0,0,0,353.89732
2020/12/11 13:29:00.014,n,145,12.24,7.92,14.76,22.8,60.4,1020.52,0.08,0,0,0,357.66596
2020/12/11 13:30:00.010,n,151,22.68,19.8,24.119998,22.8,60.2,1020.52,0.08,0,0,0,352.83076
2020/12/11 13:31:00.000,n,175,6.48,4.68,7.56,22.8,60.8,1020.52,0.08,0,0,0,338.66784
2020/12/11 13:32:00.000,n,172,5.4,3.24,8.28,22.8,60.9,1020.52,0.08,0,0,0,319.84552
2020/12/11 13:33:00.002,n,139,7.92,3.6,9.72,22.9,60.8,1020.52,0.08,0,0,0,303.36664
2020/12/11 13:34:00.000,n,206,4.68,3.6,5.04,22.9,60.7,1020.52,0.08,0,0,0,287.96534
2020/12/11 13:35:00.000,n,183,7.92,6.48,9.36,23,60.4,1020.52,0.08,0,0,0,274.6905
2020/12/11 13:36:00.010,n,153,7.2,6.12,9.36,23,60.3,1020.52,0.08,0,0,0,264.36486
2020/12/11 13:37:00.006,n,195,8.64,5.76,11.16,23,59.4,1020.52,0.08,0,0,0,256.57342
2020/12/11 13:38:00.003,n,164,5.4,3.6,7.92,23,59.4,1020.52,0.08,0,0,0,251.58836
2020/12/11 13:39:00.000,n,162,7.56,6.84,7.92,23,59.1,1020.52,0.08,0,0,0,244.1198
2020/12/11 13:40:00.000,n,148,16.56,12.6,20.519998,23.1,58.3,1020.42,0.08,0,0,0,235.4641
2020/12/11 13:41:00.000,n,146,22.68,19.08,25.919998,23,57,1020.52,0.08,0,0,0,225.10094
2020/12/11 13:42:00.000,n,112,17.64,13.68,21.96,23,56.7,1020.42,0.08,0,0,0,216.5429
2020/12/11 13:43:00.005,n,84,8.64,5.04,11.52,23,57,1020.42,0.08,0,0,0,211.3665
2020/12/11 13:44:00.003,n,150,20.880002,18,23.04,23,56.2,1020.42,0.08,0,0,0,207.88078
2020/12/11 13:45:00.000,n,139,9.36,9,10.440002,23,56.4,1020.52,0.08,0,0,0,204.93888
2020/12/11 13:46:00.000,n,113,8.28,7.56,9.72,23.1,55.9,1020.42,0.08,0,0,0,203.153
2020/12/11 13:47:00.011,n,153,6.48,2.88,10.440002,23.1,55.7,1020.42,0.08,0,0,0,203.09562
2020/12/11 13:48:00.008,n,160,5.76,1.8,8.28,23.2,55.8,1020.42,0.08,0,0,0,202.21398
2020/12/11 13:49:00.000,n,90,7.56,5.76,10.8,23.2,55.9,1020.42,0.08,0,0,0,202.51914
2020/12/11 13:50:00.003,n,145,9.36,6.84,13.32,23.2,55.7,1020.42,0.08,0,0,0,205.92552
2020/12/11 13:51:00.000,n,173,10.08,7.56,11.52,23.3,55.7,1020.42,0.08,0,0,0,211.19438
2020/12/11 13:52:00.000,n,179,16.56,15.12,18,23.3,55.1,1020.32,0.08,0,0,0,219.47716
2020/12/11 13:53:00.000,n,150,6.48,4.32,8.28,23.2,55.5,1020.32,0.08,0,0,0,230.5368
2020/12/11 13:54:00.006,n,127,8.64,6.48,11.52,23.2,55.7,1020.22,0.08,0,0,0,240.41474
2020/12/11 13:55:00.004,n,140,7.2,5.76,8.64,23.2,55.8,1020.22,0.08,0,0,0,248.31146
2020/12/11 13:56:00.001,n,116,7.56,6.48,8.64,23.3,55.6,1020.32,0.08,0,0,0,256.5152
2020/12/11 13:57:00.015,n,110,7.56,6.48,8.28,23.3,55.4,1020.22,0.08,0,0,0,265.29876
2020/12/11 13:58:00.000,n,149,10.8,9.72,11.16,23.4,55.3,1020.22,0.08,0,0,0,275.77546
2020/12/11 13:59:00.000,n,155,15.12,12.96,16.2,23.4,55.1,1020.22,0.08,0,0,0,266.08094
2020/12/11 14:00:00.000,n,139,6.84,5.76,9,23.4,54.9,1020.32,0.08,0,0,0,280.59784
2020/12/11 14:01:00.006,n,108,2.88,1.44,4.68,23.4,55.4,1020.32,0.08,0,0,0,285.98754
2020/12/11 14:02:00.002,n,99,3.96,3.6,4.32,23.5,55.2,1020.32,0.08,0,0,0,289.46258
2020/12/11 14:03:00.000,n,93,9,7.2,11.52,23.5,54.6,1020.32,0.08,0,0,0,304.28924
2020/12/11 14:04:00.000,n,146,13.32,10.8,15.48,23.5,54.2,1020.22,0.08,0,0,0,305.35004
2020/12/11 14:05:00.011,n,150,10.08,9.72,10.440002,23.5,54.7,1020.22,0.08,0,0,0,302.42096
2020/12/11 14:06:00.007,n,144,15.84,14.4,16.919998,23.5,54,1020.22,0.08,0,0,0,299.47052
2020/12/11 14:07:00.000,n,147,13.32,11.52,14.4,23.5,54.5,1020.22,0.08,0,0,0,298.1778
2020/12/11 14:08:00.003,n,138,7.56,5.4,12.6,23.5,54.5,1020.22,0.08,0,0,0,298.93432
2020/12/11 14:09:00.000,n,114,10.08,8.28,12.24,23.6,54.2,1020.32,0.08,0,0,0,301.56616
2020/12/11 14:10:00.000,n,82,13.68,11.88,15.84,23.6,53.7,1020.22,0.08,0,0,0,303.15552
2020/12/11 14:11:00.000,n,92,6.84,5.4,7.2,23.6,53.9,1020.22,0.08,0,0,0,304.9353
2020/12/11 14:12:00.010,n,157,4.32,2.16,5.76,23.6,53.7,1020.22,0.08,0,0,0,308.13018
2020/12/11 14:13:00.006,n,171,3.96,3.6,5.04,23.7,54,1020.32,0.08,0,0,0,313.8852
2020/12/11 14:14:00.003,n,134,6.84,4.32,8.64,23.8,53.7,1020.22,0.08,0,0,0,323.37738
2020/12/11 14:15:00.000,n,139,3.96,1.08,5.4,23.8,54,1020.22,0.08,0,0,0,335.5554
2020/12/11 14:16:00.000,n,115,3.96,2.88,5.04,23.8,53.8,1020.22,0.08,0,0,0,350.88684
2020/12/11 14:17:00.000,n,159,10.08,8.28,10.8,23.9,53.6,1020.22,0.08,0,0,0,352.43316
2020/12/11 14:18:00.000,n,153,16.2,14.04,19.44,23.8,53.6,1020.22,0.08,0,0,0,359.41956
2020/12/11 14:19:00.007,n,171,12.6,9.36,15.48,23.8,53.4,1020.22,0.08,0,0,0,362.72768
2020/12/11 14:20:00.005,n,161,14.4,12.96,14.76,23.8,53.1,1020.22,0.08,0,0,0,371.6568
2020/12/11 14:21:00.001,n,122,5.04,2.16,7.92,23.7,53.9,1020.22,0.08,0,0,0,377.22352
2020/12/11 14:22:00.000,n,120,6.12,5.04,7.56,23.8,52.7,1020.22,0.08,0,0,0,384.82756
2020/12/11 14:23:00.013,n,160,6.48,5.76,7.56,23.9,53.2,1020.22,0.08,0,0,0,385.80384
2020/12/11 14:24:00.010,n,136,16.919998,14.4,20.16,24,52.9,1020.12,0.08,0,0,0,385.726
2020/12/11 14:25:00.000,n,165,10.440002,9,12.24,23.9,52.9,1020.22,0.08,0,0,0,387.30592
2020/12/11 14:26:00.000,n,114,13.68,12.24,15.48,23.9,52.6,1020.12,0.08,0,0,0,367.59796
2020/12/11 14:27:00.003,n,154,5.4,1.08,7.2,24,53.1,1020.22,0.08,0,0,0,369.3692
2020/12/11 14:28:00.000,n,92,3.96,3.6,4.68,24,52.4,1020.22,0.08,0,0,0,351.25612
2020/12/11 14:29:00.000,n,107,9.72,7.56,11.88,24,52.4,1020.22,0.08,0,0,0,338.60812
2020/12/11 14:30:00.009,n,119,9.36,5.4,11.88,23.9,52.6,1020.22,0.08,0,0,0,327.19058
2020/12/11 14:31:00.005,n,159,9.72,5.4,12.24,23.9,52.7,1020.22,0.08,0,0,0,324.72384
2020/12/11 14:32:00.003,n,173,6.48,5.4,7.56,23.9,52.7,1020.22,0.08,0,0,0,334.17422
2020/12/11 14:33:00.000,n,169,8.28,1.8,12.6,24,52.5,1020.12,0.08,0,0,0,351.63304
2020/12/11 14:34:00.000,n,140,6.12,5.04,6.84,24,52.4,1020.12,0.08,0,0,0,367.6526
2020/12/11 14:35:00.000,n,188,8.64,7.92,9.36,24.1,51.9,1020.12,0.08,0,0,0,370.94548
2020/12/11 14:36:00.000,n,270,1.08,0.72,2.16,24.1,52,1020.12,0.08,0,0,0,371.41512
2020/12/11 14:37:00.006,n,130,7.2,3.6,9.72,24.2,50.9,1020.12,0.08,0,0,0,371.39928
2020/12/11 14:38:00.003,n,166,9,2.16,14.76,24.2,50.7,1020.02,0.08,0,0,0,370.6406
2020/12/11 14:39:00.001,n,131,7.2,1.44,13.32,24.3,50.9,1020.02,0.08,0,0,0,367.38744
2020/12/11 14:40:00.000,n,125,14.76,11.16,19.08,24.3,50.1,1020.02,0.08,0,0,0,358.91024
2020/12/11 14:41:00.011,n,146,5.76,3.96,7.56,24.3,49.8,1020.02,0.08,0,0,0,350.40804
2020/12/11 14:42:00.008,n,159,6.12,2.88,9.36,24.3,50.3,1020.02,0.08,0,0,0,341.3004
2020/12/11 14:43:00.000,n,144,10.08,6.12,13.68,24.3,50.4,1020.02,0.08,0,0,0,335.66684
2020/12/11 14:44:00.004,n,134,11.88,9.72,14.04,24.3,50.6,1020.02,0.08,0,0,0,341.5854
2020/12/11 14:45:00.000,n,160,13.32,11.88,15.12,24.2,50.3,1020.02,0.08,0,0,0,354.92616
2020/12/11 14:46:00.000,n,142,7.92,3.96,9.72,24.2,50.4,1020.02,0.08,0,0,0,372.6114
2020/12/11 14:47:00.000,n,126,9.72,7.2,11.52,24.2,50.7,1020.02,0.08,0,0,0,397.23056
2020/12/11 14:48:00.008,n,94,10.08,8.64,11.52,24.3,50.4,1020.02,0.08,0,0,0,409.1492
2020/12/11 14:49:00.004,n,129,5.4,3.6,8.64,24.3,50.4,1019.92,0.08,0,0,0,413.3582
2020/12/11 14:50:00.001,n,142,17.28,14.76,20.16,24.3,50.3,1019.92,0.08,0,0,0,410.9128
2020/12/11 14:51:00.016,n,144,9.72,5.04,11.52,24.2,50.9,1019.92,0.08,0,0,0,410.18132
2020/12/11 14:52:00.000,n,145,10.8,9.72,12.6,24.1,51.7,1019.92,0.08,0,0,0,409.98872
2020/12/11 14:53:00.000,n,143,16.56,14.04,19.44,24.1,51.4,1019.92,0.08,0,0,0,406.99008
2020/12/11 14:54:00.000,n,135,12.6,10.08,15.12,24,51.6,1019.92,0.08,0,0,0,394.67808
2020/12/11 14:55:00.006,n,119,5.4,2.16,9.36,24,52.4,1019.92,0.08,0,0,0,371.07852
2020/12/11 14:56:00.003,n,114,9.72,5.04,13.32,24,52.6,1019.92,0.08,0,0,0,340.82828
2020/12/11 14:57:00.001,n,213,6.48,3.96,7.56,24.1,52.5,1019.92,0.08,0,0,0,306.33182
2020/12/11 14:58:00.000,n,136,7.92,5.04,9.36,24.2,52.5,1019.92,0.08,0,0,0,274.90024
2020/12/11 14:59:00.012,n,154,22.319998,20.880002,27.359998,24.1,53,1019.82,0.08,0,0,0,245.27726
2020/12/11 15:00:00.008,n,136,8.28,7.2,9,24,53.4,1019.82,0.08,0,0,0,212.83738
2020/12/11 15:01:00.000,n,151,10.440002,8.64,13.32,24,53.7,1019.82,0.08,0,0,0,188.41384
2020/12/11 15:02:00.003,n,124,17.28,13.68,19.44,24.1,53.6,1019.82,0.08,0,0,0,157.43484
2020/12/11 15:03:00.001,n,95,9,6.84,11.52,24.1,53.4,1019.92,0.08,0,0,0,113.26994
2020/12/11 15:04:00.000,n,128,9.72,7.2,14.4,24.1,53.7,1019.82,0.08,0,0,0,88.08852
2020/12/11 15:05:00.000,n,138,14.4,12.6,15.84,24,53.8,1019.82,0.08,0,0,0,80.674304
2020/12/11 15:06:00.009,n,132,16.56,14.4,18,23.9,53.3,1019.82,0.08,0,0,0,79.993528
2020/12/11 15:07:00.005,n,101,14.4,11.52,19.44,23.8,54,1019.82,0.08,0,0,0,83.453312
2020/12/11 15:08:00.002,n,105,26.28,23.759998,33.48,23.7,54.6,1019.82,0.08,0,0,0,89.433352
2020/12/11 15:09:00.016,n,66,14.4,12.96,15.48,23.5,55.3,1019.82,0.08,0,0,0,96.121064
2020/12/11 15:10:00.000,n,108,18,11.88,26.64,23.4,55.8,1019.82,0.08,0,0,0,101.26438
2020/12/11 15:11:00.000,n,74,27.359998,25.56,28.8,23.3,56.5,1019.82,0.08,0,0,0,104.28032
2020/12/11 15:12:00.000,n,104,14.04,11.16,18,23.2,57.3,1019.92,0.08,0,0,0,104.97156
2020/12/11 15:13:00.007,n,134,12.96,6.48,17.64,23,57.9,1019.92,0.08,0,0,0,101.87154
2020/12/11 15:14:00.003,n,121,18,7.92,31.319998,22.8,58.7,1019.82,0.08,0,0,0,96.061328
2020/12/11 15:15:00.000,n,72,34.2,27,44.639996,22.7,59.3,1020.12,0.08,0,0,0,86.532376
2020/12/11 15:16:00.006,n,130,28.08,25.56,31.68,22.5,59.8,1019.92,0.08,0,0,0,87.495304
2020/12/11 15:17:00.003,n,125,33.48,30.96,36,22.1,60.9,1019.92,0.08,0,0,0,82.228912
2020/12/11 15:18:00.009,n,133,19.8,13.68,27.72,21.8,62.2,1020.02,0.08,0.2,0,0,72.180264
2020/12/11 15:19:00.000,n,106,19.08,14.4,22.319998,21.6,63.3,1020.02,0.08,0,0,0,72.537192
2020/12/11 15:20:00.000,n,120,23.04,18.359998,28.8,21.4,64.4,1020.02,0.08,0,0,0,66.17906
2020/12/11 15:21:00.000,n,139,15.84,11.88,20.519998,21.3,65.5,1020.12,0.08,0,0,0,67.595888
2020/12/11 15:22:00.000,n,104,15.12,11.88,18.72,21.2,67.3,1020.42,0.08,0,0,0,83.273072
2020/12/11 15:23:00.000,n,137,27.359998,21.24,31.68,21,69,1020.32,0.08,0,0,0,97.778248
2020/12/11 15:24:00.008,n,107,27.359998,21.24,30.239998,20.8,71,1020.32,0.09,0.2,0,0,102.25602